Tracking 34717 objects as of 14-Jul-2026
HD Live streaming from Space Station
objects crossing your sky now

STARLINK-1913

Track STARLINK-1913 now!
10-day predictions
STARLINK-1913 is classified as:


NORAD ID: 47179
Int'l Code: 2020-088BK
Perigee: 457.8 km
Apogee: 464.1 km
Inclination: 53.2 °
Period: 93.7 minutes
Semi major axis: 6831 km
RCS: Unknown
Launch date: November 25, 2020
Source: United States (US)
Launch site: AIR FORCE EASTERN TEST RANGE (AFETR)
Your satellite tracking list
Your tracking list is empty




NASA's NSSDC Master Catalog

Two Line Element Set (TLE):
1 47179U 20088BK  26194.97119212  .00030349  00000-0  82283-3 0  9995
2 47179  53.1574  78.1289 0004571 115.5751 244.5726 15.37398166311130
Source of the keplerian elements: AFSPC